Location: Bemmer
(51.5498°N, 5.6249°E)
Time: 11:18:00
(UTC+00:00)

Okean-O - Pass Details

Date: 03 March 2021
Orbit: 639 x 640 km, 98.2° (Epoch: 16 April)

Event Time Altitude Azimuth Distance (km) Brightness Sun altitude
Rises 18:22:47 0° 170° (S) 2,935 5.9 -10.3°
Reaches altitude 10° 18:24:59 10° 172° (S) 2,030 5.1 -10.6°
Maximum altitude 18:29:24 70° 257° (WSW) 685 3.0 -11.3°
Drops below altitude 10° 18:33:51 10° 341° (NNW) 2,046 5.5 -12.0°
Sets 18:36:05 0° 344° (NNW) 2,960 6.3 -12.4°
